Location: Huesca
(42.1318°N, 0.4078°W)
Time: 08:35:40
(UTC+02:00)

TIGRISAT - Pass Details

Date: 30 April 2024
Orbit: 594 x 672 km, 97.7° (Epoch: 20 May)

Event Time Altitude Azimuth Distance (km) Brightness Sun altitude
Rises 06:02:35 0° 169° (S) 2,902 ? -10.1°
Reaches altitude 10° 06:04:47 10° 171° (S) 1,987 ? -9.8°
Maximum altitude 06:09:06 78° 258° (WSW) 631 ? -9.1°
Drops below altitude 10° 06:13:22 10° 345° (NNW) 1,960 ? -8.4°
Sets 06:15:32 0° 347° (NNW) 2,860 ? -8.0°
